sat.trackr.live / text

‹ back to catalog

STARLINK-32918

NORAD 63087 · 2025-037L

PAYLOAD ACTIVE UNKNOWN

§ Identity

Operator
Country
US
Launch date
2025-02-23
Launch site
AFWTR
Launch vehicle
Mass (kg)
RCS (m²)

Purposes: comms

External: N2YO · Heavens-Above · Gunter

§ Orbital elements

Epoch: 2026-09-20T07:16:43.367808Z

Period
94.14 min
Inclination
70.0003°
Eccentricity
0.0002622
Mean motion
15.29593940 rev/d
Perigee alt
475.2 km
Apogee alt
478.8 km
Semi-major
6,855.2 km
B*
5.3343e-4
RAAN
221.3602°
Arg perigee
272.0479°
Mean anomaly
88.0396°
Rev number
8,790

§ Raw data

STARLINK-329181 63087U 25037L   26263.30327972  .00015243  00000+0  53343-3 0  99982 63087  70.0003 221.3602 0002622 272.0479  88.0396 15.29593940 87900

JSON: /api/v1/satellites/63087 · /tle

For live sub-satellite position, see the globe view (requires WebGL).

§ Visibility from observer

Set your observer location to see the next 7 days of passes ≥ 10°. The values pass through the URL so the page stays shareable.

No JS? Fill the form by hand. The geolocation button needs JavaScript.